Home   Weather   Syracuse   Past weeks

Flag for USA Past Weather in Syracuse, New York, USA — Yesterday and Last 2 Weeks

Now
46 °F

Passing clouds.


Feels Like: 44 °F
Forecast: 48 / 73 °F
Wind: 5 mph from East

Location: Syracuse Hancock International Airport

Current Time: Sep 28, 2016 at 6:27:25 AM

Latest Report: Sep 28, 2016 at 5:54 AM


Visibility: 10 mi

Pressure: 30.02 "Hg

Humidity: 93%

Dew Point: 44 °F

Location of SyracuseLocation

Past Weather in Syracuse — Graph

°F

Syracuse Temperature Yesterday

Maximum temperature yesterday: 72 °F (at 3:54 PM)
Minimum temperature yesterday: 50 °F (at 4:54 AM)
Average temperature yesterday: 60 °F

High & Low Weather Summary for the Past Weeks

 TemperatureHumidityPressure
High84 °F (Sep 20, 2:54 PM)100% (Sep 15, 6:54 AM)30.34 "Hg (Sep 15, 6:54 AM)
Low40 °F (Sep 25, 6:54 AM)26% (Sep 27, 3:54 PM)29.81 "Hg (Sep 27, 2:54 PM)
Average63 °F74%30.08 "Hg
* Reported Sep 13 4:54 AM — Sep 28 4:54 AM, Syracuse, Weather by CustomWeather, © 2016

Note: Actual official high and low records may vary slightly from our data, if they occured in-between our weather recording intervals... More about our weather records

Advertising

Syracuse Weather History for the Previous 24 Hours

Scroll right to see more
 ConditionsComfort  
Time TempWeatherWind HumidityBarometerVisibility
4:54 AM
Wed, Sep 28
46 °FPassing clouds.6 mph96%30.00 "Hg10 mi
3:54 AM47 °FPassing clouds.8 mph93%29.99 "Hg10 mi
2:54 AM47 °FPassing clouds.6 mph90%29.98 "Hg10 mi
1:54 AM47 °FPassing clouds.6 mph93%29.97 "Hg10 mi
12:54 AM51 °FPassing clouds.5 mph77%29.96 "Hg10 mi
11:54 PM
Tue, Sep 27
52 °FPassing clouds.5 mph75%29.95 "Hg10 mi
10:54 PM51 °FPassing clouds.6 mph77%29.93 "Hg10 mi
9:54 PM55 °FPassing clouds.5 mph69%29.92 "Hg10 mi
8:54 PM55 °FPassing clouds.5 mph77%29.90 "Hg10 mi
7:54 PM56 °FPassing clouds.No wind72%29.88 "Hg10 mi
6:54 PM61 °FPassing clouds.No wind50%29.86 "Hg10 mi
5:54 PM68 °FScattered clouds.7 mph31%29.83 "Hg10 mi
4:54 PM71 °FPartly sunny.13 mph26%29.83 "Hg10 mi
3:54 PM72 °FPartly sunny.15 mph26%29.81 "Hg10 mi
2:54 PM71 °FScattered clouds.12 mph31%29.81 "Hg10 mi
1:54 PM70 °FScattered clouds.8 mph31%29.82 "Hg10 mi
12:54 PM69 °FScattered clouds.12 mph38%29.84 "Hg10 mi
11:54 AM68 °FScattered clouds.8 mph44%29.85 "Hg10 mi
10:54 AM66 °FScattered clouds.8 mph56%29.87 "Hg10 mi
9:54 AM63 °FScattered clouds.9 mph63%29.87 "Hg10 mi
8:54 AM61 °FScattered clouds.7 mph72%29.88 "Hg10 mi
7:54 AM53 °FBroken clouds.3 mph96%29.88 "Hg10 mi
6:54 AM51 °FPassing clouds.3 mph96%29.87 "Hg10 mi
Weather by CustomWeather, © 2016

See weather overviewHow to use our weather pages